Regional Weather Roundup
Issued by NWS Goodland, KS

Home | Current Version | Previous Version | Graphics & Text | Print | Product List | Glossary On
Versions: 1 2 3 4 5 6 7 8 9 10 11 12 13 14 15 16 17 18 19 20 21 22 23 24 25 26 27 28 29 30 31 32 33 34 35 36 37 38 39 40 41 42 43 44 45 46 47 48 49 50
000
ASUS43 KGLD 171908
RWRGLD

GOODLAND FORECAST AREA HOURLY WEATHER ROUNDUP
NATIONAL WEATHER SERVICE GOODLAND KS
100 PM MDT THU APR 17 2014

...OFFICIAL OBSERVATIONS...

CITY           SKY/WX    TMP DP  RH WIND       PRES   REMARKS
GOODLAND KS    CLOUDY    48  34  58 S17       30.21F
HILL CITY KS   SUNNY     49  27  42 CALM      30.27F
IMPERIAL NEB   CLOUDY    43  32  65 SE15      30.21F
MCCOOK NEB       N/A     46  30  53 VRB3      30.26F
AKRON CO       MOSUNNY   57  35  43 S21G38    30.08F
BURLINGTON CO  CLOUDY    44  36  73 S20       30.19F
LIMON CO       MOSUNNY   51  34  52 S20G29    30.14F
$$

...UNOFFICIAL OBSERVATIONS...

CITY           SKY/WX    TMP DP  RH WIND       PRES   REMARKS
COLBY KS       MOSUNNY   48  36  61 SE8G16    30.24F
GOVE KS          N/A     49  32  52 CALM        N/A
LENORA KS        N/A     45  32  60 CALM        N/A
LEOTI KS         N/A     51  32  49 S7          N/A
NORTON KS      SUNNY     45  28  53 E3        30.26F
OBERLIN KS     FAIR      46  30  53 CALM      30.25F
SHARON SPRINGS   N/A     51  37  59 S12G20      N/A
ST FRANCIS KS  CLOUDY    50  32  50 S14G24    30.19F
WAKEENEY KS      N/A     51  26  37 MISG        N/A
TRENTON NEB      N/A     46  32  58 S8          N/A
KIT CARSON CO    N/A     46  37  70 MISG        N/A
WRAY CO        CLOUDY    50  36  57 S15G23    30.16F
$$



USA.gov is the U.S. government's official web portal to all federal, state and local government web resources and services.